Change the Weather History Date:

Wednesday, April 10, 2013

  Actual Average Record
Temperature  
Mean Temperature 60 °F -  
Max Temperature 75 °F 72 °F 93 °F (2011)
Min Temperature 43 °F 52 °F 41 °F (2003)
Degree Days  
Heating Degree Days 6    
Growing Degree Days 10 (Base 50)    
Moisture  
Dew Point 59 °F    
Average Humidity 92    
Maximum Humidity 100    
Minimum Humidity 73    
Precipitation  
Precipitation 1.83 in - - ()
Sea Level Pressure  
Sea Level Pressure 29.80 in    
Wind  
Wind Speed 12 mph (SSW)    
Max Wind Speed 21 mph    
Max Gust Speed 41 mph    
Visibility 7 miles    
Events Rain , Hail , Thunderstorm    
Averages and records for this station are not official NWS values.
T = Trace of Precipitation, MM = Missing Value Source: NWS Daily Summary

Daily Weather History Graph

Daily Weather History Graph

Search for Another Location

Airport or City:

Trip Planner

Search our weather history database for the weather conditions in past years. The results will help you decide how hot, cold, wet, or windy it might be!

Date:

Astronomy

Apr. 10, 2013 Rise Set
Actual Time 6:51 AM CDT 7:41 PM CDT
Civil Twilight 6:26 AM CDT 8:06 PM CDT
Nautical Twilight 5:56 AM CDT 8:35 PM CDT
Astronomical Twilight 5:26 AM CDT 9:06 PM CDT
Moon 6:49 AM CDT (4/10) 8:13 PM CDT (4/10)
Length of Visible Light 13h 40m
Length of Day
12h 50m
New Moon, 0% of the Moon is Illuminated
Apr 10
New Moon
Apr 18
First Quarter
Apr 25
Full
May 2
Last Quarter
May 9
New

Hourly Weather History & Observations

Time (CDT) Temp. Windchill Dew Point Humidity Pressure Visibility Wind Dir Wind Speed Gust Speed Precip Events Conditions
12:58 AM 73.9 °F - 67.6 °F 81% 29.84 in 10.0 mi SSE 10.4 mph - N/A   Overcast
1:58 AM 73.4 °F - 67.8 °F 83% 29.83 in 10.0 mi SE 10.4 mph - N/A   Overcast
2:18 AM 73.4 °F - 68.0 °F 83% 29.81 in 10.0 mi SSE 10.4 mph - N/A   Mostly Cloudy
2:28 AM 73.4 °F - 68.0 °F 83% 29.80 in 10.0 mi SSE 12.7 mph - N/A   Mostly Cloudy
2:58 AM 72.7 °F - 68.0 °F 85% 29.80 in 10.0 mi SSE 11.5 mph - N/A   Overcast
3:58 AM 71.6 °F - 68.4 °F 89% 29.79 in 10.0 mi SSE 11.5 mph - N/A   Mostly Cloudy
4:28 AM 71.6 °F - 68.0 °F 88% 29.78 in 10.0 mi SSE 9.2 mph - N/A   Mostly Cloudy
4:58 AM 71.6 °F - 68.4 °F 89% 29.79 in 10.0 mi SSE 9.2 mph - N/A   Mostly Cloudy
5:08 AM 71.6 °F - 68.0 °F 88% 29.78 in 10.0 mi SE 8.1 mph - N/A   Scattered Clouds
5:58 AM 70.7 °F - 68.9 °F 94% 29.77 in 10.0 mi SSE 10.4 mph - N/A   Mostly Cloudy
6:58 AM 71.2 °F - 68.0 °F 89% 29.78 in 10.0 mi SSE 9.2 mph - N/A   Overcast
7:08 AM 71.6 °F - 68.0 °F 88% 29.78 in 10.0 mi SSE 10.4 mph - N/A   Overcast
7:44 AM 71.6 °F - 68.0 °F 88% 29.82 in 4.0 mi South 8.1 mph - N/A Rain Light Rain
7:58 AM 71.6 °F - 68.9 °F 91% 29.84 in 5.0 mi SSE 6.9 mph - 0.00 in   Light Drizzle
8:24 AM 71.6 °F - 69.8 °F 94% 29.83 in 10.0 mi SE 4.6 mph - N/A   Overcast
8:58 AM 71.8 °F - 68.9 °F 91% 29.85 in 10.0 mi SE 5.8 mph - 0.00 in   Overcast
9:58 AM 72.7 °F - 68.9 °F 88% 29.85 in 10.0 mi SSE 9.2 mph - N/A   Overcast
10:12 AM 73.4 °F - 68.0 °F 83% 29.84 in 10.0 mi SSE 9.2 mph - N/A Rain Light Rain
10:28 AM 73.4 °F - 69.8 °F 88% 29.84 in 10.0 mi SE 9.2 mph - N/A   Overcast
10:46 AM 71.6 °F - 69.8 °F 94% 29.84 in 5.0 mi SSE 9.2 mph - N/A Rain Light Rain
10:58 AM 72.0 °F - 70.5 °F 95% 29.84 in 5.0 mi SE 11.5 mph - 0.00 in Rain Light Rain
11:09 AM 71.6 °F - 71.6 °F 100% 29.83 in 2.5 mi SE 11.5 mph - N/A   Light Drizzle
11:29 AM 71.6 °F - 71.6 °F 100% 29.82 in 6.0 mi SE 9.2 mph - N/A   Overcast
11:59 AM 72.0 °F - 72.0 °F 100% 29.82 in 6.0 mi ESE 11.5 mph - 0.00 in   Overcast
12:29 PM 73.4 °F - 71.6 °F 94% 29.80 in 10.0 mi SE 12.7 mph - N/A   Overcast
12:58 PM 73.8 °F - 70.5 °F 90% 29.79 in 10.0 mi SE 13.8 mph - N/A   Overcast
1:28 PM 73.4 °F - 69.8 °F 88% 29.76 in 10.0 mi SE 13.8 mph - N/A Rain Light Rain
1:31 PM 73.4 °F - 69.8 °F 88% 29.76 in 10.0 mi SE 13.8 mph - N/A   Light Drizzle
1:52 PM 73.4 °F - 71.6 °F 94% 29.75 in 7.0 mi SE 16.1 mph - N/A   Overcast
1:58 PM 73.4 °F - 71.8 °F 95% 29.76 in 9.0 mi SSE 15.0 mph - 0.00 in   Overcast
2:58 PM 75.0 °F - 71.2 °F 88% 29.73 in 10.0 mi SSE 15.0 mph - N/A   Overcast
3:58 PM 75.4 °F - 70.7 °F 85% 29.70 in 10.0 mi SSE 12.7 mph - N/A   Overcast
4:15 PM 75.2 °F - 69.8 °F 83% 29.71 in 10.0 mi West 19.6 mph 21.9 mph N/A   Mostly Cloudy
4:24 PM 64.4 °F - 55.4 °F 73% 29.72 in 10.0 mi NW 17.3 mph 41.4 mph N/A   Overcast
4:47 PM 53.6 °F - 48.2 °F 82% 29.75 in 10.0 mi NW 17.3 mph 33.4 mph N/A   Overcast
4:51 PM 53.6 °F - 48.2 °F 82% 29.75 in 6.0 mi NNW 18.4 mph - N/A Rain Light Rain
4:58 PM 52.9 °F - 48.2 °F 84% 29.78 in 6.0 mi West 18.4 mph - 0.00 in Rain , Thunderstorm Light Thunderstorms and Rain
5:27 PM 51.8 °F - 48.2 °F 88% 29.75 in 6.0 mi WNW 10.4 mph - N/A Rain , Thunderstorm Light Thunderstorms and Rain
5:37 PM 51.8 °F - 50.0 °F 94% 29.78 in 6.0 mi WNW 15.0 mph - N/A Rain , Thunderstorm Light Thunderstorms and Rain
5:47 PM 50.0 °F - 48.2 °F 94% 29.78 in 2.5 mi WNW 15.0 mph 20.7 mph N/A Rain , Thunderstorm Heavy Thunderstorms and Rain
5:58 PM 49.3 °F - 47.7 °F 94% 29.80 in 6.0 mi WNW 11.5 mph 20.7 mph 0.16 in Rain , Thunderstorm Light Thunderstorms and Rain
6:10 PM 50.0 °F - 48.2 °F 94% 29.80 in 10.0 mi WNW 11.5 mph - N/A Rain Light Rain
6:30 PM 48.2 °F - 46.4 °F 93% 29.79 in 6.0 mi NW 12.7 mph - N/A Rain , Thunderstorm Light Thunderstorms and Rain
6:58 PM 48.0 °F - 46.2 °F 93% 29.79 in 7.0 mi NNW 15.0 mph 26.5 mph 0.03 in Rain , Thunderstorm Light Thunderstorms and Rain
7:01 PM 48.2 °F - 46.4 °F 93% 29.79 in 2.0 mi NW 13.8 mph 26.5 mph N/A Rain , Thunderstorm Heavy Thunderstorms and Rain
7:03 PM 48.2 °F - 46.4 °F 93% 29.80 in 2.0 mi NNW 16.1 mph 26.5 mph N/A Rain , Thunderstorm Heavy Thunderstorms and Rain
7:07 PM 48.2 °F - 46.4 °F 93% 29.77 in 3.0 mi NNW 15.0 mph - N/A Rain , Thunderstorm Rain
7:08 PM 48.2 °F - 46.4 °F 93% 29.77 in 3.0 mi NNW 15.0 mph - N/A Rain , Thunderstorm Heavy Thunderstorms and Rain
7:15 PM 46.4 °F 41.5 °F 46.4 °F 100% 29.83 in 2.0 mi West 10.4 mph - N/A Rain , Hail , Thunderstorm Heavy Thunderstorms and Rain
7:25 PM 46.4 °F 41.1 °F 46.4 °F 100% 29.79 in 2.5 mi NW 11.5 mph - N/A Rain , Thunderstorm Heavy Thunderstorms and Rain
7:43 PM 48.2 °F - 46.4 °F 93% 29.81 in 1.5 mi NNW 9.2 mph - N/A Rain , Thunderstorm Light Thunderstorms and Rain
7:58 PM 46.8 °F - 46.4 °F 99% 29.85 in 6.0 mi WNW 9.2 mph - 0.90 in Rain , Thunderstorm Light Thunderstorms and Rain
8:09 PM 46.4 °F 40.1 °F 46.4 °F 100% 29.83 in 5.0 mi NNW 15.0 mph - N/A Rain , Thunderstorm Heavy Thunderstorms and Rain
8:31 PM 46.4 °F 39.5 °F 46.4 °F 100% 29.82 in 10.0 mi NW 17.3 mph - N/A Rain , Thunderstorm Light Rain
8:52 PM 46.4 °F 41.5 °F 46.4 °F 100% 29.86 in 4.0 mi NW 10.4 mph - N/A Rain , Thunderstorm Thunderstorms and Rain
8:58 PM 46.0 °F 39.6 °F 46.0 °F 100% 29.87 in 5.0 mi NW 15.0 mph - 0.21 in Rain , Thunderstorm Heavy Thunderstorms and Rain
9:58 PM 45.7 °F 39.5 °F 45.7 °F 100% 29.89 in 2.0 mi NNW 13.8 mph - 0.12 in Rain , Thunderstorm Light Thunderstorms and Rain
10:58 PM 44.2 °F 35.9 °F 44.2 °F 100% 29.85 in 6.0 mi NNW 20.7 mph - 0.40 in Rain , Thunderstorm Light Thunderstorms and Rain
11:19 PM 44.6 °F 38.1 °F 44.6 °F 100% 29.86 in 10.0 mi NNW 13.8 mph - N/A   Mostly Cloudy
11:58 PM 43.7 °F 39.1 °F 43.7 °F 100% 29.93 in 10.0 mi WNW 8.1 mph - 0.01 in   Overcast